TimeMST,TemperatureF,Dew PointF,Humidity,Sea Level PressureIn,VisibilityMPH,Wind Direction,Wind SpeedMPH,Gust SpeedMPH,PrecipitationIn,Events,Conditions,WindDirDegrees,DateUTC
12:53 AM,-0.0,-14.1,52,30.33,10.0,Calm,Calm,-,N/A,,Clear,0,2013-01-01 07:53:00
1:53 AM,-0.9,-14.1,54,30.35,10.0,Calm,Calm,-,N/A,,Scattered Clouds,0,2013-01-01 08:53:00
2:53 AM,3.0,-11.0,52,30.35,10.0,Calm,Calm,-,N/A,,Overcast,0,2013-01-01 09:53:00
3:53 AM,7.0,-9.0,48,30.35,8.0,Calm,Calm,-,0.00,,Overcast,0,2013-01-01 10:53:00
4:53 AM,3.0,-9.9,55,30.42,10.0,NNE,4.6,-,0.00,,Overcast,30,2013-01-01 11:53:00
5:53 AM,10.0,-6.0,48,30.41,9.0,Calm,Calm,-,N/A,,Overcast,0,2013-01-01 12:53:00
6:53 AM,12.0,-5.1,46,30.45,8.0,Calm,Calm,-,0.00,,Overcast,0,2013-01-01 13:53:00
7:09 AM,12.2,-4.0,48,30.15,3.0,Calm,Calm,-,0.00,Snow,Light Snow,0,2013-01-01 14:09:00
7:53 AM,12.9,-5.1,45,30.47,4.0,Calm,Calm,-,0.00,Snow,Light Snow,0,2013-01-01 14:53:00
8:39 AM,17.6,-2.2,42,30.19,2.5,Calm,Calm,-,0.00,Snow,Light Snow,0,2013-01-01 15:39:00
8:53 AM,18.0,-2.0,41,30.47,2.5,Calm,Calm,-,0.00,Snow,Light Snow,0,2013-01-01 15:53:00
9:00 AM,17.6,-2.2,42,30.20,3.0,Calm,Calm,-,0.00,Snow,Light Snow,0,2013-01-01 16:00:00
9:14 AM,19.4,-0.4,42,30.20,2.5,Calm,Calm,-,0.00,Snow,Light Snow,0,2013-01-01 16:14:00
9:28 AM,21.2,1.4,42,30.20,4.0,Calm,Calm,-,0.00,Snow,Light Snow,0,2013-01-01 16:28:00
9:53 AM,23.0,6.1,48,30.48,10.0,Calm,Calm,-,0.00,,Mostly Cloudy,0,2013-01-01 16:53:00
10:01 AM,23.0,1.4,39,30.21,10.0,Calm,Calm,-,N/A,,Scattered Clouds,0,2013-01-01 17:01:00
10:53 AM,17.1,-0.0,47,30.53,10.0,Calm,Calm,-,N/A,,Clear,0,2013-01-01 17:53:00
11:53 AM,28.0,1.0,31,30.45,10.0,Calm,Calm,-,N/A,,Clear,0,2013-01-01 18:53:00
12:53 PM,21.9,1.9,42,30.41,10.0,Calm,Calm,-,N/A,,Clear,0,2013-01-01 19:53:00
1:53 PM,25.0,3.0,39,30.40,10.0,Calm,Calm,-,N/A,,Clear,0,2013-01-01 20:53:00
2:53 PM,33.1,3.0,28,30.35,10.0,Calm,Calm,-,N/A,,Clear,0,2013-01-01 21:53:00
3:53 PM,16.0,1.9,54,30.40,10.0,Calm,Calm,-,N/A,,Clear,0,2013-01-01 22:53:00
4:53 PM,7.0,-2.9,64,30.47,10.0,Calm,Calm,-,N/A,,Clear,0,2013-01-01 23:53:00
5:53 PM,-2.9,-9.9,72,30.48,10.0,Calm,Calm,-,N/A,,Clear,0,2013-01-02 00:53:00
6:53 PM,-4.0,-11.0,72,30.50,10.0,Calm,Calm,-,N/A,,Clear,0,2013-01-02 01:53:00
7:53 PM,1.0,-7.1,69,30.48,10.0,Calm,Calm,-,N/A,,Overcast,0,2013-01-02 02:53:00
8:53 PM,9.0,-2.0,61,30.43,10.0,Calm,Calm,-,N/A,,Overcast,0,2013-01-02 03:53:00
9:53 PM,21.0,-0.9,38,30.36,10.0,Calm,Calm,-,N/A,,Overcast,0,2013-01-02 04:53:00
10:53 PM,10.0,1.0,67,30.43,6.0,Calm,Calm,-,0.00,Snow,Light Snow,0,2013-01-02 05:53:00
11:53 PM,12.0,1.9,64,30.38,6.0,Calm,Calm,-,0.00,Snow,Light Snow,0,2013-01-02 06:53:00